Find OneWeb SL0115

NORAD ID: 48042 Int'l Des: 2021-025 Owner: ONEWEBN Country: UK Constellation: oneweb operational
LEOCIRCULARPOLARONEWEB_TYPE

現在のビュー

3D地球を読み込み中...

OneWeb SL0115について

説明を読み込み中...

次回通過

Passes for default location (London). Set your location on the main map for personalized predictions.

高度履歴

Loading altitude history...

軌道要素

1 48042U 21025A 26149.89308779 -.00000286 00000-0 -81750-3 0 9993
2 48042 87.8945 323.8671 0001803 90.4476 269.6860 13.13468801251193
Epoch: May 29, 2026 • Age: 13 hours

現在のステータス

高度 1219.9 km
速度 7.25 km/s
衛星直下点 65.53°N, 78.05°W
打ち上げ日 Mar 25, 2021
運用期間 5.1 years
タイプ internet

技術仕様

分類 Payload
質量 148.00 kg
乾燥質量 140.00 kg
総質量 148.00 kg
長さ 1.30 m
直径 1.00 m
スパン 5.00 m
形状 Trapezoid+2 pan
製造者 ONEWUS
バスタイプ ARROW
フェーズステータス In Orbit
所有者/国 ONEWEBN/UK

Most Searched